Regional Weather Roundup
Issued by NWS Grand Forks, ND

Home | Current Version | Previous Version | Text Only | Print | Product List | Glossary On
Versions: 1 2 3 4 5 6 7 8 9 10 11 12 13 14 15 16 17 18 19 20 21 22 23 24 25 26 27 28 29 30 31 32 33 34 35 36 37 38 39 40 41 42 43 44 45 46 47 48 49 50
000
ASUS43 KFGF 221010
RWRFGF
PRAIRIE TO PINES  WEATHER ROUNDUP
NATIONAL WEATHER SERVICE EASTERN NORTH DAKOTA/GRAND FORKS ND
400 AM CST MON DEC 22 2014

 **SATELLITE DATA USED TO AUGMENT SKY COVER AT AUTOMATED STATIONS**
 *****  WEATHER ACROSS EASTERN NORTH DAKOTA  *****

CITY           SKY/WX    TMP DP  RH WIND       PRES   REMARKS
GRAND FORKS    CLOUDY    34  33  96 SE8       29.52F
GRAND FRKS AFB CLOUDY    33  33 100 SE5       29.52F FOG
GRAND FRKS NWS   N/A     32 N/A N/A SE9         N/A  WCI  24
DEVILS LAKE    CLOUDY    30  25  80 E5        29.47S
FARGO          CLOUDY    38  36  92 SE12      29.50F
WAHPETON ARPT  CLOUDY    34  32  93 SE12      29.50F
$$

 ***** WEATHER ACROSS CENTRAL AND WESTERN NORTH DAKOTA  *****

CITY           SKY/WX    TMP DP  RH WIND       PRES   REMARKS
BISMARCK       FOG       28  28 100 SE6       29.45S VSB 3/4 WCI  22
MINOT          CLOUDY    28  27  96 SE7       29.44S FOG     WCI  21
JAMESTOWN      CLOUDY    32  31  96 E3        29.45S FOG
MINOT AFB      FRZ DRZL  28  28 100 SE7       29.45R FOG     WCI  21
GARRISON         N/A     28  28 100 E6        29.42S WCI  22
WILLISTON      LGT SNOW  33  31  92 NW10      29.45R FOG     WCI  25
DICKINSON      CLOUDY    34  31  88 W20       29.41R WCI  23
HETTINGER      CLOUDY    35  32  88 NW16      29.45S
$$

 *****  OTHER AIRPORT OBSERVATIONS IN OUR AREA  *****

CITY           SKY/WX    TMP DP  RH WIND       PRES   REMARKS
WALHALLA         N/A     32  32 100 E5        29.55S FOG
GRAFTON AIRPOR NOT AVBL
VALLEY CITY AR FOG       32  32 100 SE3       29.47S VSB 1/4
CANDO          CLOUDY    28  28 100 SE7       29.50S WCI  21
CAVALIER APRT  CLOUDY    32  32 100 E5        29.55S FOG
GWINNER        CLOUDY    36  36 100 SE12      29.46F
ROLLA          FOG       27  27 100 S12       29.49S VSB 1   WCI  16
 ***** THE ABOVE OBSERVATIONS ARE NON NWS ARE NOT QUALITY
       CONTROLLED AND MAY MIS-REPORT RAIN FOR SNOW...
$$

  *****  WEATHER ACROSS NORTHERN MINNESOTA  *****

CITY           SKY/WX    TMP DP  RH WIND       PRES   REMARKS
FLAG ISLAND    CLOUDY    34  30  86 SE6       29.62S FOG
WARROAD        CLOUDY    34  28  80 E6        29.61F FOG
ROSEAU         CLOUDY    34  30  86 E7        29.60S FOG
HALLOCK        CLOUDY    34  34 100 E9        29.55F FOG
THF RVR FALLS  CLOUDY    34  34 100 E13       29.55F WCI  25
BAUDETTE       CLOUDY    33  32  96 E7        29.61F FOG
WASKISH        CLOUDY    34  34 100 CALM      29.61S
CROOKSTON      MIX PCPN  36  34  93 E8        29.55S
STEPHEN NDAWN    N/A     34  34 100 E9          N/A
GREENBUSH NDAW   N/A     34  34 100 E1          N/A
$$
  *****  WEATHER ACROSS CENTRAL AND WEST MINNESOTA  *****

CITY           SKY/WX    TMP DP  RH WIND       PRES   REMARKS
FOSSTON        CLOUDY    34  32  93 E8        29.55F FOG
BEMIDJI        CLOUDY    33  33  99 SE9       29.58S FOG
PARK RAPIDS    CLOUDY    35  34  96 SE12      29.56F FOG
ELBOW LAKE     CLOUDY    35  35 100 SE16      29.52S FOG
WADENA         DRIZZLE   34  34 100 SE10      29.56S
DETROIT LAKES  CLOUDY    36  34  93 SE10      29.53F FOG
MOORHEAD       CLOUDY    37  37 100 SE13      29.51F FOG
FERGUS FALLS   CLOUDY    36  36 100 SE16      29.54F FOG
MORRIS MN      FOG       36  36 100 SE16      29.51F VSB 3/4
STAPLES        CLOUDY    36  36 100 SE7       29.58S FOG
$$
  *****  WEATHER ELSEWHERE ACROSS MINNESOTA  *****

CITY           SKY/WX    TMP DP  RH WIND       PRES   REMARKS
DULUTH         LGT SNOW  33  32  96 SE9       29.69S FOG
INTRNTL FALLS  CLOUDY    33  32  96 SE8       29.65S FOG
ELY            CLOUDY    34  32  93 SE8       29.69S FOG
CLOQUET        LGT SNOW  34  32  93 SE3       29.68F
WHEATON        CLOUDY    34  34 100 SE13      29.52S FOG     WCI  25
BRAINERD       CLOUDY    36  35  96 SE10      29.61F FOG
HIBBING        CLOUDY    34  31  88 SE8       29.67S FOG
ALEXANDRIA     CLOUDY    36  35  96 SE14      29.55F FOG
SAINT CLOUD    CLOUDY    39  36  89 SE16      29.61F FOG
MINNEAPOLIS    CLOUDY    37  35  92 S16       29.68F
$$

  *****  WEATHER ACROSS SOUTH DAKOTA  *****

CITY           SKY/WX    TMP DP  RH WIND       PRES   REMARKS
SIOUX FALLS    LGT RAIN  40  39  97 S14       29.49F
BROOKINGS      NOT AVBL
WATERTOWN      CLOUDY    36  35  96 S12       29.44F FOG
HURON          CLOUDY    35  35 100 S8        29.44S FOG
SISSETON         N/A     35  35 100 S9        29.46F
ABERDEEN       CLOUDY    36  34  92 S3        29.43F FOG
MITCHELL       LGT RAIN  38  37  97 S9        29.45F
PIERRE         CLOUDY    32  31  96 MISG      29.43F FOG
MOBRIDGE       CLOUDY    29  28  96 CALM      29.41S FOG
RAPID CITY     MOCLDY    41  27  57 NW29G37   29.51F
$$

  *****  SOME WEATHER IN NEARBY STATES *****

CITY           SKY/WX    TMP DP  RH WIND       PRES   REMARKS
GLASGOW MT     CLOUDY    33  27  78 NW22G30   29.56R WCI  21
GREAT FALLS MT MOCLDY    34  26  72 SW8       29.73R
CHEYENNE WY    PTCLDY    29  21  72 NW22G30   29.69R WCI  15
SCOTTSBLUFF NE CLOUDY    36  28  73 W13       29.67R
OMAHA NE       LGT RAIN  43  42  97 S17       29.58F
DES MOINES IA  CLOUDY    41  38  89 S14       29.69F
DAVENPORT IA   CLOUDY    36  30  79 SE15      29.84F
CHICAGO IL     CLOUDY    29  25  85 SE8       29.96F WCI  21
EAU CLAIRE WI  CLOUDY    36  33  89 S12       29.76F FOG
LA CROSSE WI   CLOUDY    38  33  82 SE12      29.80F
$$

  *****  SOME NATIONAL WEATHER *****

CITY           SKY/WX    TMP DP  RH WIND       PRES   REMARKS
LA GUARDIA NY  CLOUDY    36  31  82 N3        30.32S
RALEIGH NC     RAIN      36  33  89 N9        30.15S FOG
ATLANTA GA     DRZL/FOG  46  44  93 E10       30.03S VSB 1
NEW ORLEANS LA CLOUDY    58  56  93 E5        29.86F FOG
OKLAHOMA CITY  CLOUDY    49  45  86 S7        29.54F
ALBUQUERQUE NM PTCLDY    35  29  78 S8        29.92S
SALT LAKE CITY CLOUDY    41  35  79 CALM      30.03S
LOS ANGELES CA PTCLDY    54  53  97 CALM      30.03S
BOISE ID       LGT RAIN  40  39  97 CALM      30.08S FOG
SEATTLE WA     PTCLDY    46  42  86 S3        30.15R
$$

*** WEATHER ACROSS MANITOBA...SASKATCHEWAN AND ONTARIO ***
                ***ONTARIO***

CITY           SKY/WX    TMP DP  RH WIND       PRES   REMARKS
GERALDTON      NOT AVBL
THUNDER BAY    CLOUDY    36  34  93 S6        29.80S
SIOUX LOOKOUT  NOT AVBL
TORONTO        NOT AVBL
BIG TROUT LK   FLURRIES  28  28 100 S5        29.74R WCI  23
PICKLE LAKE    NOT AVBL
DRYDEN         CLOUDY    32  30  93 S6        29.67S
KENORA         CLOUDY    30  30 100 SE8       29.64S FOG     WCI  23
$$
                *** MANITOBA***

CITY           SKY/WX    TMP DP  RH WIND       PRES   REMARKS
BRANDON        CLOUDY    28  28 100 E7        29.53S FOG     WCI  21
DAUPHIN        SNOW      25  25 100 E6        29.59R VSB 3/8 WCI  18
ISLAND LAKE    FLURRIES  28  27  93 CALM      29.69R
PILOT MOUND      N/A     28  28 100 CALM        N/A
THE PAS        NOT AVBL
THOMPSON       FRZ DRZL  19  18  93 NE7       29.75R WCI  10
WINNIPEG       CLOUDY    30  30 100 E9        29.61S FOG     WCI  22
LYNN LAKE      LGT SNOW  12  10  92 NE3       29.76R
CHURCHILL      FLURRIES  16  16 100 W6        29.83R WCI   7
$$
                ***SASKATCHEWAN***

CITY           SKY/WX    TMP DP  RH WIND       PRES   REMARKS
ESTEVAN        FOG       28  28 100 E9        29.44R VSB 1/4 WCI  20
KINDERSLEY     NOT AVBL
LLOYDMINSTER   LGT SNOW  19  18  93 NW12      29.62R WCI   7
PRINCE ALBERT  NOT AVBL
REGINA         NOT AVBL
YORKTON        CLOUDY    23  23 100 NE10      29.55R WCI  12
N. BATTLEFORD  CLOUDY    19  18  93 NW3       29.65R
LA RONGE       NOT AVBL
SASKATOON      CLOUDY    23  21  93 N8        29.62R WCI  14
SWIFT CURRENT  FLURRIES  19  18  93 NW17      29.56R WCI   4
$$
NOTE: THESE ARE AUTOMATED STATIONS WITH LIMITED QUALITY CONTROL
      "FAIR" INDICATES FEW OR NO CLOUDS BELOW 12,000 FEET WITH NO
      SIGNIFICANT WEATHER AND/OR OBSTRUCTIONS TO VISIBILITY.
      SKY/WX - SKY CONDITION AND SIGNIFICANT WEATHER.
      TMP - AIR TEMPERATURE.    DP   - DEWPOINT TEMPERATURE.
      RH  - RELATIVE HUMIDITY.  PRES - PRESSURE.
      HX  - HEAT INDEX.         WCI  - WIND CHILL INDEX.
$


USA.gov is the U.S. government's official web portal to all federal, state and local government web resources and services.